Regional Weather Roundup
Issued by NWS

Home | Current Version | Previous Version | Text Only | Print | Product List | Glossary On
Versions: 1 2 3 4 5 6 7 8 9 10 11 12 13 14 15 16 17 18 19 20 21 22 23 24 25 26 27 28 29 30 31 32 33 34 35 36 37 38 39 40 41 42 43 44 45 46 47 48 49 50
000
ASUS46 KSEW 270610
RWRWA

WASHINGTON REGIONAL WEATHER ROUNDUP
NATIONAL WEATHER SERVICE SEATTLE WA
1100 PM PDT TUE JUL 26 2016

NOTE:"FAIR" INDICATES FEW OR NO CLOUDS BELOW 12,000 FEET WITH NO
SIGNIFICANT WEATHER AND/OR OBSTRUCTIONS TO VISIBILITY.

WAZ505-507>509-270700-
SEATTLE, TACOMA, EVERETT, AND VICINITY

CITY           SKY/WX    TMP DP  RH WIND       PRES   REMARKS
EVERETT        CLEAR     59  54  83 N5        30.13S
6HR MIN TEMP:  59; 6HR MAX TEMP:  73;

BOEING FIELD   CLEAR     67  56  67 NW5       30.10R
6HR MIN TEMP:  67; 6HR MAX TEMP:  79;

RENTON         CLEAR     71  61  70 NW5       30.09S
6HR MIN TEMP:  70; 6HR MAX TEMP:  79;

SEATAC AIRPORT CLEAR     68  59  73 N8        30.12R
6HR MIN TEMP:  67; 6HR MAX TEMP:  78;

JBLM-MCCHORD   CLEAR     67  59  77 W3        30.11R
6HR MIN TEMP:  67; 6HR MAX TEMP:  80; 6HR PCP: TRACE;

PUYALLUP         N/A    N/A N/A N/A CALM      30.12R
BREMERTON      CLEAR     64  59  82 CALM      30.14S
6HR MIN TEMP:  61; 6HR MAX TEMP:  81;

JBLM-FT LEWIS  CLEAR     64  58  80 W8        30.11R
6HR MIN TEMP:  64; 6HR MAX TEMP:  79;

TACOMA NARROWS CLEAR     65  57  75 W6        30.11S
6HR MIN TEMP:  65; 6HR MAX TEMP:  76;

$$

WAZ001-503-506-510-514-515-270700-
NORTH INTERIOR

CITY           SKY/WX    TMP DP  RH WIND       PRES   REMARKS
BELLINGHAM     CLEAR     61  56  83 S12       30.09F
6HR MIN TEMP:  61; 6HR MAX TEMP:  70;

FRIDAY HARBOR  CLEAR     55  51  86 N3        30.11S
6HR MIN TEMP:  54; 6HR MAX TEMP:  68;

EASTSOUND      CLEAR     59  54  82 S7        30.08S
PORT ANGELES   PTCLDY    55  52  89 W12       30.13F
6HR MIN TEMP:  55; 6HR MAX TEMP:  65;

EDIZ HOOK      FAIR      55  53  94 W18G24    30.12F
6HR MIN TEMP:  54; 6HR MAX TEMP:  61;

PORT TOWNSEND  FAIR      55  52  88 CALM      30.12F
NAS WHIDBEY    PTCLDY    56  51  84 SW9       30.16S
6HR MIN TEMP:  56; 6HR MAX TEMP:  66;

ARLINGTON      CLEAR     59  48  67 NW12      30.14S
6HR MIN TEMP:  59; 6HR MAX TEMP:  75;

BURLINGTON     CLEAR     57  54  88 CALM      30.12F
$$

WAZ020-022-039-040-504-511-512-270700-
SOUTHWEST INTERIOR

CITY           SKY/WX    TMP DP  RH WIND       PRES   REMARKS
SHELTON        CLEAR     60  54  80 SW12      30.11R
6HR MIN TEMP:  60; 6HR MAX TEMP:  82;

OLYMPIA        CLEAR     61  54  77 SE3       30.12R
6HR MIN TEMP:  61; 6HR MAX TEMP:  81;

CHEHALIS       FAIR      61  57  88 SW3       30.13S
KELSO          MOCLDY    61  56  83 NW3       30.13S
6HR MIN TEMP:  61; 6HR MAX TEMP:  77;

VANCOUVER      CLEAR     66  55  67 N8        30.08R
6HR MIN TEMP:  66; 6HR MAX TEMP:  83;

SCAPPOOSE, OR  CLEAR     64  54  69 NW13G18   30.08S
6HR MIN TEMP:  64; 6HR MAX TEMP:  83;

PORTLAND, OR   CLEAR     67  56  67 NW13G20   30.08R
6HR MIN TEMP:  67; 6HR MAX TEMP:  83;

$$

WAZ021-516-517-270700-
WASHINGTON COAST

CITY           SKY/WX    TMP DP  RH WIND       PRES   REMARKS
FORKS          CLOUDY    56  56 100 CALM      30.15F
6HR MIN TEMP:  56; 6HR MAX TEMP:  62;

HOQUIAM        CLOUDY    57  55  93 W5        30.16S
6HR MIN TEMP:  57; 6HR MAX TEMP:  65;

ASTORIA, OR    CLOUDY    60  56  86 N10       30.16S
6HR MIN TEMP:  60; 6HR MAX TEMP:  66;

$$

WAZ019-023-024-040-518-519-270700-
CASCADE MOUNTAINS AND COLUMBIA GORGE

CITY           SKY/WX    TMP DP  RH WIND       PRES   REMARKS
STAMPEDE PASS  CLOUDY    55  53  93 VRB6      30.21R
6HR MIN TEMP:  55; 6HR MAX TEMP:  68;

TROUTDALE, OR  CLEAR     68  57  68 VRB3      30.07R
6HR MIN TEMP:  68; 6HR MAX TEMP:  84;

THE DALLES, OR CLEAR     76  58  53 NW10      29.96R
6HR MIN TEMP:  76; 6HR MAX TEMP:  90;

$$

WAZ026-027-041>044-520-521-270700-
EAST SLOPES

CITY           SKY/WX    TMP DP  RH WIND       PRES   REMARKS
OMAK           CLEAR     70  54  56 NW8       30.03R
6HR MIN TEMP:  69; 6HR MAX TEMP:  85; 6HR PCP: TRACE;

WENATCHEE      CLEAR     77  56  48 N9        30.00S
6HR MIN TEMP:  76; 6HR MAX TEMP:  95;

ELLENSBURG     CLEAR     72  56  57 NW18G29   30.03R
6HR MIN TEMP:  72; 6HR MAX TEMP:  88;

YAKIMA         CLEAR     79  50  36 CALM      29.99R
6HR MIN TEMP:  77; 6HR MAX TEMP:  99;

$$

WAZ028-034-035-270700-
COLUMBIA BASIN

CITY           SKY/WX    TMP DP  RH WIND       PRES   REMARKS
EPHRATA        CLEAR     77  57  50 N9        29.98R
6HR MIN TEMP:  77; 6HR MAX TEMP:  95;

MOSES LAKE     CLEAR     78  53  41 N17G24    29.96R
6HR MIN TEMP:  78; 6HR MAX TEMP:  96;

PASCO          CLEAR     82  51  34 NW12      29.90R
6HR MIN TEMP:  80; 6HR MAX TEMP: 100;

HERMISTON, OR  CLEAR     78  55  44 SW12      29.92R
6HR MIN TEMP:  78; 6HR MAX TEMP:  98;

$$

WAZ036>038-270700-
NORTHEAST WASHINGTON

CITY           SKY/WX    TMP DP  RH WIND       PRES   REMARKS
SPOKANE GEIGER PTCLDY    71  54  54 N10       30.04R
6HR MIN TEMP:  71; 6HR MAX TEMP:  90; 6HR PCP: TRACE;

SPOKANE FELTS  PTCLDY    70  58  65 CALM      30.04R
6HR MIN TEMP:  69; 6HR MAX TEMP:  92; 6HR PCP:  0.04;

FAIRCHILD AFB  PTCLDY    68  53  58 NE7       30.04S
6HR MIN TEMP:  68; 6HR MAX TEMP:  89; 6HR PCP: TRACE;

COEURDALENE,ID CLOUDY    66  61  82 E12       30.02F
6HR MIN TEMP:  66; 6HR MAX TEMP:  88; 6HR PCP:  0.23;

DEER PARK      MOCLDY    65  59  81 W10       30.05F
6HR MIN TEMP:  64; 6HR MAX TEMP:  88; 6HR PCP:  0.24;

$$

WAZ029>033-270700-
SOUTHEAST WASHINGTON

CITY           SKY/WX    TMP DP  RH WIND       PRES   REMARKS
PULLMAN        CLEAR     68  50  52 CALM      30.04R
6HR MIN TEMP:  68; 6HR MAX TEMP:  90;

LEWISTON, ID   PTCLDY    85  47  26 W8        29.94R
6HR MIN TEMP:  85; 6HR MAX TEMP:  98;

WALLA WALLA    CLEAR     77  49  37 E8        29.94S
6HR MIN TEMP:  76; 6HR MAX TEMP:  95;

PENDLETON, OR  CLEAR     70  44  39 SW6       29.97R
6HR MIN TEMP:  69; 6HR MAX TEMP:  95;

$$



USA.gov is the U.S. government's official web portal to all federal, state and local government web resources and services.